Location: 22
(39.7117°N, 89.5929°W)
Time: 10:18:37
(UTC-05:00)

BlueWalker 3 - Visible Passes

Search period start: 11 April 2026 00:00
Search period end: 21 April 2026 00:00
Orbit: 450 x 457 km, 53.2° (Epoch: 10 April)

Date Brightness Start Highest point End Pass type
(mag) Time Alt. Az. Time Alt. Az. Time Alt. Az.
11 Apr 1.8 20:00:16 10° NW 20:03:52 87° SW 20:07:27 10° SE visible
12 Apr 4.5 21:02:41 10° W 21:04:20 13° SW 21:05:58 10° SSW visible
13 Apr 4.2 20:25:28 10° W 20:27:55 17° SW 20:30:22 10° S visible
